This demonstration page uses our WeatherBlox Daily Observations layout. Learn more.

Left ArrowRight Arrow

Hourly Observations for March 3, 2019

Temp ( °F °C ) Dew Point ( °F °C ) Humidity (%) Winds ( mph kmh ) Pressure ( in mb ) Visibility ( mi km ) Precip ( " mm )
12:51 am 00:51 Clear 55 12.8 40 4.4 57 57 W 6 9 29.89 1012 10 16 N/A
1:51 am 01:51 Mostly Cloudy 54 12.2 40 4.4 59 59 S 5 7 29.90 1013 10 16 N/A
2:51 am 02:51 Cloudy 52 11.1 40 4.4 64 64 ESE 3 6 29.91 1013 10 16 N/A
3:51 am 03:51 Mostly Clear 48 8.9 40 4.4 74 74 VRB 3 6 29.92 1013 10 16 N/A
4:51 am 04:51 Mostly Cloudy 50 10 40 4.4 68 68 WNW 8 13 29.93 1014 10 16 N/A
5:51 am 05:51 Clear 52 11.1 41 5 66 66 WNW 8 13 29.94 1014 10 16 N/A
6:51 am 06:51 Sunny 50 10 42 5.6 74 74 N N/A 29.95 1014 10 16 N/A
7:51 am 07:51 Sunny 53 11.7 42 5.6 66 66 E 3 6 29.96 1015 10 16 N/A
8:51 am 08:51 Sunny 58 14.4 42 5.6 56 56 N N/A 29.98 1015 10 16 N/A
9:51 am 09:51 Sunny 62 16.7 43 6.1 50 50 N N/A 29.96 1015 10 16 N/A
10:51 am 10:51 Sunny 67 19.4 42 5.6 41 41 WNW 9 15 29.94 1014 10 16 N/A
11:51 am 11:51 Sunny 66 18.9 41 5 40 40 SW 3 6 29.93 1014 10 16 N/A
12:51 pm 12:51 Sunny 70 21.1 40 4.4 34 34 VRB 6 9 29.88 1012 10 16 N/A
1:51 pm 13:51 Partly Cloudy 70 21.1 38 3.3 31 31 NNW 7 11 29.84 1011 10 16 N/A
2:51 pm 14:51 Sunny 73 22.8 36 2.2 26 26 WNW 16 26 29.80 1009 10 16 N/A
3:51 pm 15:51 Sunny 73 22.8 31 -0.6 21 21 NW 21 33 29.79 1009 10 16 N/A
4:51 pm 16:51 Sunny 72 22.2 28 -2.2 19 19 WNW 18 30 29.78 1009 10 16 N/A
5:51 pm 17:51 Sunny 69 20.6 26 -3.3 20 20 NW 18 30 29.79 1009 10 16 N/A
6:51 pm 18:51 Clear 64 17.8 35 1.7 34 34 NW 14 22 29.82 1010 10 16 N/A
7:51 pm 19:51 Clear 62 16.7 35 1.7 37 37 NW 9 15 29.84 1011 10 16 N/A
8:51 pm 20:51 Clear 57 13.9 36 2.2 45 45 NW 8 13 29.84 1011 10 16 N/A
9:51 pm 21:51 Clear 55 12.8 36 2.2 49 49 NW 5 7 29.86 1011 10 16 N/A
10:51 pm 22:51 Clear 54 12.2 37 2.8 53 53 WNW 7 11 29.86 1011 10 16 N/A
11:51 pm 23:51 Clear 51 10.6 38 3.3 61 61 N N/A 29.86 1011 10 16 N/A

Powered by AerisWeather